Wind_Speed
23 22 22 28 27 28 29 30 31 32 34 35 34 33 37 42 43 45 45 45 48 51 52 57 63 69 69 68 68 65 62 58 52 45 45 45 43 42 44 47 56 65 65 61
25 25 30 29 29 30 31 33 33 34 36 39 37 35 37 40 42 44 46 48 49 50 51 53 54 61 65 70 72 71 68 66 63 54 53 52 49 50 48 50 52 57 62 65
26 31 30 32 33 33 34 35 36 39 38 41 44 44 39 41 45 46 47 52 54 55 55 55 55 53 57 63 65 71 74 70 67 66 56 55 57 57 55 54 54 54 57 63
28 32 35 36 33 40 37 38 39 39 43 43 44 58 40 42 43 43 45 49 54 57 59 61 62 57 57 57 64 65 67 69 67 68 67 64 57 56 53 55 53 56 55 57
30 33 37 38 36 41 39 39 41 43 45 49 45 54 50 45 48 49 48 47 50 52 57 63 67 69 62 60 63 65 67 69 68 66 65 64 60 55 55 55 57 57 56 57
29 37 38 38 41 41 43 43 45 46 46 53 44 52 58 50 53 57 57 58 49 50 58 65 67 65 66 63 59 61 64 64 60 57 59 60 61 60 57 56 58 60 59 60
34 34 37 40 44 42 41 41 45 50 48 53 50 56 54 51 59 62 63 61 50 44 56 55 59 63 64 62 59 53 53 48 47 45 45 45 48 49 51 57 57 59 60 60
39 36 34 38 38 40 40 40 43 52 53 55 54 58 57 53 56 56 54 52 43 39 46 47 48 54 62 65 60 57 53 49 47 46 47 50 47 49 49 54 56 57 60 60
40 41 39 37 37 38 39 42 45 48 52 57 58 58 58 54 50 51 43 39 41 37 41 41 44 45 54 62 66 60 55 54 54 51 51 48 44 49 52 53 52 54 57 56
42 46 43 40 40 39 41 46 47 49 54 58 59 60 57 44 44 35 34 35 33 36 36 38 41 37 42 53 59 64 55 50 50 45 50 47 42 46 48 53 55 57 56 55
43 44 42 39 38 40 42 44 45 48 52 57 61 60 44 39 39 36 27 24 28 32 32 34 36 31 36 39 48 55 62 58 48 48 51 49 46 43 49 51 52 58 58 52
39 43 42 39 41 41 42 40 43 50 52 54 54 58 38 30 31 32 31 27 24 21 27 30 37 39 34 30 39 49 54 55 54 54 57 54 50 51 44 42 44 49 54 53
38 40 40 40 38 40 42 39 44 47 48 47 47 45 32 31 31 30 28 22 19 23 25 28 34 33 35 33 37 47 56 64 62 57 54 51 54 42 43 42 38 39 41 48
39 39 37 39 39 39 38 40 41 42 43 40 41 40 26 30 32 31 30 31 29 25 27 27 30 37 28 31 42 54 58 62 62 60 54 52 48 49 41 42 36 38 39 41
36 37 36 36 33 36 40 38 35 37 34 40 34 37 26 25 25 25 26 29 30 33 29 28 31 34 35 31 33 35 51 53 61 59 58 52 48 46 38 38 37 39 40 42
35 34 34 29 31 36 38 30 32 33 32 33 31 26 27 27 29 28 26 27 28 30 34 36 36 38 35 37 38 40 34 45 49 60 52 48 46 37 40 36 39 40 40 39
30 32 30 26 30 34 32 28 31 29 30 28 28 28 28 27 28 27 30 31 28 34 33 39 41 41 41 38 40 41 43 42 45 46 43 47 49 43 45 40 40 41 41 41
25 25 29 29 31 31 26 26 26 29 28 32 32 32 34 36 36 35 38 39 37 35 32 35 39 45 45 44 41 42 45 43 51 52 45 42 46 44 47 46 43 42 43 44
21 25 28 29 29 28 22 23 26 31 24 31 34 38 42 47 48 40 43 47 47 44 42 42 40 41 45 47 48 46 44 45 48 50 52 50 46 48 51 48 43 44 43 43
21 24 26 26 26 23 17 24 29 34 31 33 36 42 49 53 58 49 52 52 55 56 55 53 52 51 48 47 47 50 45 41 43 50 49 53 55 51 53 55 49 48 42 40
21 24 24 23 27 22 20 22 30 34 38 40 46 51 56 60 60 58 52 49 47 47 52 58 61 59 58 58 56 53 50 49 45 43 46 53 52 52 56 57 54 52 44 45
20 22 21 22 22 23 23 28 34 39 39 47 51 53 55 55 56 58 57 56 54 52 52 51 55 61 65 65 63 60 55 52 49 48 50 52 50 55 58 62 63 62 59 51
18 19 18 17 16 21 23 31 37 44 47 48 51 51 55 60 61 59 56 52 50 52 52 53 53 52 52 57 63 66 59 54 52 51 47 48 52 55 55 55 56 58 59 61
17 16 13 13 17 19 27 35 40 47 50 50 52 55 56 55 51 45 40 39 37 36 36 38 41 36 35 39 44 44 54 51 46 42 43 45 45 45 49 54 59 62 64 64
13 11 7 10 16 19 27 36 43 41 45 48 51 52 50 41 35 30 36 32 29 20 21 26 18 14 19 26 33 35 39 43 37 38 42 43 44 46 49 52 55 60 66 66
8 5 4 9 18 24 29 34 39 40 45 47 41 33 41 33 35 28 34 33 18 13 13 7 4 4 6 6 13 20 27 30 31 33 34 34 36 37 39 41 42 46 55 63
Wind_Direction
255 257 258 254 256 257 260 262 264 265 267 265 265 264 264 268 267 265 261 255 254 251 250 252 249 249 253 255 258 260 260 261 260 253 247 251 249 249 252 251 251 243 245 241
259 260 259 265 265 262 262 264 266 266 267 269 268 263 265 269 271 270 270 269 262 256 253 252 250 250 251 252 256 258 261 262 261 249 251 252 254 256 252 251 251 252 250 252
265 264 265 266 266 267 266 270 268 271 269 273 274 266 266 268 272 273 272 270 268 266 263 257 250 247 249 250 249 250 254 256 259 261 251 248 254 256 253 249 250 253 252 252
269 267 267 266 267 270 270 273 276 276 276 274 268 275 264 267 269 270 269 270 271 271 265 261 259 252 249 247 246 247 249 249 253 257 261 261 254 249 247 247 247 251 254 251
266 270 269 273 275 273 279 274 274 275 277 277 276 280 281 279 279 279 279 275 276 272 264 260 255 254 247 244 246 244 245 248 249 251 253 255 255 251 248 250 248 248 249 252
267 267 272 276 275 277 279 277 275 276 277 277 286 281 284 290 292 288 289 288 280 263 252 251 248 246 250 244 242 244 246 245 244 246 248 249 251 252 251 251 246 247 248 248
264 263 267 272 275 275 275 276 276 276 278 283 286 281 286 295 297 295 296 295 289 257 243 251 252 245 243 248 244 244 247 246 247 247 248 254 252 252 250 249 247 247 247 250
272 268 266 270 275 279 277 278 280 284 286 286 287 288 294 298 300 301 296 292 289 272 253 250 250 245 242 243 245 245 246 246 250 253 259 260 258 252 249 244 245 246 247 248
286 288 286 282 279 280 282 282 283 285 286 286 289 295 297 304 302 296 289 284 286 280 263 249 242 245 242 242 242 245 248 247 253 251 260 250 246 247 249 248 247 249 251 251
285 285 285 285 283 283 284 283 286 287 289 292 295 296 302 307 293 282 287 281 278 277 259 244 245 247 252 247 242 243 241 242 248 253 250 244 240 240 245 247 247 249 249 250
280 281 284 283 284 279 281 282 285 288 291 292 295 296 309 298 286 282 277 279 288 261 250 249 249 248 247 246 241 237 241 240 239 241 238 242 245 248 249 247 243 246 249 248
278 282 284 283 284 286 284 285 288 289 291 290 296 297 304 294 283 279 266 280 282 277 257 259 255 247 257 248 233 233 236 237 233 228 230 238 243 251 259 260 250 245 247 247
281 279 282 285 284 284 282 287 286 287 288 294 292 307 299 288 278 274 280 269 266 277 263 251 248 256 256 238 229 233 234 228 231 236 233 240 245 252 261 266 253 246 246 246
278 278 283 284 284 283 286 287 287 287 291 298 302 301 298 288 288 283 277 272 268 267 264 255 242 239 255 248 241 230 230 230 234 235 241 247 247 258 259 264 260 262 261 251
274 280 280 279 281 285 285 288 287 289 298 296 310 298 291 292 293 285 277 274 270 265 262 259 254 250 245 252 246 243 235 235 240 242 241 247 255 251 247 250 250 248 251 254
277 279 278 277 281 283 286 291 286 290 294 299 301 304 294 301 294 295 295 292 279 277 262 262 259 259 258 246 248 254 251 241 252 239 242 252 249 252 244 246 249 244 243 244
281 279 280 288 285 284 290 290 286 290 288 302 305 299 296 294 290 285 289 292 276 285 281 265 258 256 253 243 239 246 250 249 249 246 242 249 249 253 242 242 246 245 244 242
276 280 286 290 289 290 294 290 287 285 297 299 299 296 295 296 294 294 293 286 279 278 275 261 264 261 259 251 243 249 247 246 239 242 246 247 248 245 241 242 248 244 242 243
278 282 287 292 291 300 298 292 284 291 302 297 295 296 297 294 291 292 285 279 276 273 268 264 262 257 253 253 254 247 241 244 242 242 245 242 246 240 242 238 249 243 241 243
278 284 291 293 298 303 295 278 288 288 296 296 297 298 298 296 295 294 287 282 279 275 269 263 257 254 251 251 251 249 241 241 243 241 243 244 240 243 245 242 243 241 234 235
284 290 295 297 298 302 288 289 298 300 303 304 305 307 305 302 303 304 300 292 285 275 272 266 261 256 252 250 247 247 248 248 249 245 245 245 244 243 244 246 248 246 239 230
287 290 293 290 292 288 287 298 298 300 306 305 303 301 298 300 300 298 295 291 286 280 274 268 263 259 255 251 249 247 245 243 245 245 247 245 246 248 247 246 247 246 241 243
287 288 284 284 283 289 299 298 303 303 307 308 309 310 309 307 305 303 301 297 289 282 277 272 268 261 253 252 249 246 248 247 246 250 254 250 246 247 249 251 246 251 250 244
288 283 275 268 281 299 304 304 307 313 319 319 314 311 309 309 309 313 314 309 299 289 284 281 281 271 259 255 249 244 241 242 242 247 247 250 251 250 249 246 245 243 241 242
283 267 251 280 296 309 314 310 311 318 323 317 314 316 318 329 338 336 336 332 317 301 300 301 295 266 264 260 244 228 231 234 237 240 244 248 250 250 250 251 250 246 244 237
249 215 268 305 309 315 311 314 322 328 326 322 330 328 329 344 347 337 353 346 336 318 315 308 318 283 268 230 204 210 216 223 232 242 248 250 253 252 252 253 253 250 242 235
Height
5741 5743 5743 5740 5743 5743 5743 5743 5743 5744 5743 5743 5744 5745 5745 5742 5745 5747 5750 5751 5750 5751 5755 5756 5759 5758 5760 5762 5764 5769 5773 5777 5783 5789 5793 5796 5800 5799 5803 5804 5804 5809 5807 5810
5737 5736 5734 5735 5736 5736 5737 5736 5737 5737 5736 5733 5736 5738 5736 5735 5734 5735 5734 5734 5735 5738 5741 5742 5744 5746 5749 5752 5754 5756 5760 5763 5769 5776 5780 5783 5788 5789 5790 5792 5790 5793 5797 5800
5732 5729 5729 5728 5728 5728 5728 5728 5728 5726 5726 5724 5722 5722 5729 5729 5725 5724 5723 5720 5719 5720 5722 5726 5728 5729 5732 5737 5740 5745 5747 5750 5754 5758 5765 5769 5774 5776 5779 5781 5782 5782 5785 5788
5726 5723 5722 5721 5724 5717 5721 5719 5717 5717 5714 5713 5714 5698 5720 5718 5716 5713 5711 5709 5707 5706 5707 5708 5709 5716 5718 5723 5725 5729 5733 5736 5740 5743 5748 5752 5758 5762 5765 5768 5768 5769 5770 5773
5718 5715 5713 5714 5715 5710 5713 5712 5708 5705 5702 5698 5701 5696 5697 5702 5699 5696 5696 5695 5694 5692 5689 5691 5692 5695 5702 5705 5710 5713 5717 5721 5725 5730 5735 5739 5742 5747 5750 5752 5755 5757 5760 5761
5714 5707 5706 5705 5704 5703 5702 5701 5698 5694 5691 5684 5693 5685 5679 5687 5681 5675 5675 5674 5673 5672 5670 5670 5674 5678 5682 5688 5694 5698 5702 5707 5711 5716 5721 5725 5729 5731 5735 5737 5741 5743 5746 5750
5703 5704 5700 5698 5695 5696 5694 5691 5686 5681 5680 5675 5677 5670 5673 5673 5663 5657 5653 5650 5650 5652 5654 5655 5659 5664 5668 5674 5680 5684 5690 5696 5701 5704 5708 5712 5717 5718 5720 5723 5727 5730 5733 5737
5689 5692 5693 5691 5688 5685 5683 5682 5678 5668 5666 5664 5662 5656 5660 5659 5649 5643 5638 5633 5634 5635 5637 5639 5643 5648 5654 5661 5666 5671 5677 5683 5687 5692 5695 5699 5703 5706 5708 5710 5713 5716 5720 5724
5677 5677 5679 5680 5678 5676 5673 5670 5668 5662 5658 5650 5649 5647 5644 5643 5638 5633 5626 5622 5621 5622 5623 5625 5630 5635 5638 5644 5653 5659 5664 5670 5675 5679 5683 5685 5689 5692 5693 5698 5702 5705 5708 5711
5670 5666 5667 5667 5666 5666 5662 5659 5657 5654 5643 5637 5635 5632 5632 5631 5624 5621 5618 5615 5613 5611 5611 5614 5619 5624 5627 5631 5637 5646 5651 5656 5661 5666 5669 5670 5674 5677 5681 5686 5689 5692 5695 5699
5660 5657 5657 5657 5657 5654 5652 5648 5645 5640 5635 5627 5623 5623 5623 5618 5611 5609 5610 5607 5605 5604 5604 5606 5609 5614 5617 5618 5624 5631 5638 5641 5646 5653 5655 5656 5661 5665 5668 5672 5675 5678 5683 5687
5650 5645 5644 5646 5643 5642 5639 5637 5633 5628 5625 5617 5613 5611 5613 5607 5603 5600 5600 5600 5600 5598 5597 5599 5599 5603 5606 5608 5612 5618 5625 5630 5633 5633 5631 5641 5647 5652 5657 5659 5662 5665 5668 5673
5639 5636 5635 5634 5636 5633 5629 5628 5624 5619 5613 5611 5602 5606 5601 5598 5593 5591 5590 5591 5591 5590 5591 5592 5595 5595 5597 5599 5601 5606 5609 5613 5620 5622 5626 5632 5637 5643 5645 5646 5648 5653 5657 5661
5629 5628 5628 5626 5626 5623 5620 5618 5614 5608 5603 5602 5599 5591 5596 5588 5584 5583 5581 5580 5582 5583 5583 5583 5585 5588 5588 5589 5592 5590 5598 5603 5609 5613 5616 5622 5629 5632 5633 5634 5636 5641 5646 5650
5621 5619 5620 5619 5617 5613 5610 5610 5605 5599 5599 5590 5592 5584 5584 5581 5578 5575 5574 5573 5573 5572 5573 5574 5574 5577 5580 5581 5582 5581 5588 5593 5597 5600 5605 5612 5617 5619 5622 5624 5626 5630 5635 5639
5612 5613 5610 5612 5608 5604 5601 5601 5596 5594 5591 5586 5582 5580 5576 5575 5572 5570 5568 5566 5564 5563 5563 5563 5565 5566 5569 5570 5570 5573 5575 5579 5582 5588 5592 5597 5602 5607 5613 5615 5618 5620 5624 5628
5605 5603 5601 5604 5599 5595 5595 5593 5589 5586 5583 5581 5577 5573 5569 5567 5564 5562 5561 5558 5557 5555 5553 5552 5552 5553 5556 5558 5560 5561 5563 5567 5571 5575 5579 5585 5590 5597 5601 5604 5608 5611 5614 5618
5598 5596 5594 5594 5591 5589 5589 5584 5581 5578 5578 5574 5569 5566 5562 5558 5555 5555 5552 5547 5545 5544 5543 5542 5542 5542 5543 5545 5548 5550 5551 5554 5559 5564 5568 5572 5577 5582 5588 5594 5598 5600 5603 5607
5591 5590 5588 5586 5583 5583 5581 5577 5574 5571 5574 5566 5561 5557 5553 5547 5542 5546 5539 5531 5529 5529 5529 5528 5528 5529 5530 5531 5533 5535 5539 5542 5546 5550 5554 5558 5563 5568 5574 5581 5585 5588 5592 5597
5585 5583 5582 5580 5577 5575 5575 5571 5568 5564 5564 5561 5555 5549 5541 5534 5523 5529 5520 5517 5511 5508 5508 5509 5509 5509 5511 5516 5517 5521 5526 5530 5534 5537 5541 5545 5548 5553 5559 5566 5574 5578 5581 5585
5579 5576 5575 5571 5569 5570 5568 5565 5562 5558 5555 5548 5542 5534 5525 5515 5509 5500 5498 5494 5490 5486 5484 5485 5486 5488 5493 5494 5496 5502 5507 5514 5518 5520 5526 5531 5535 5539 5544 5549 5555 5563 5568 5574
5573 5571 5569 5567 5565 5565 5563 5561 5556 5551 5548 5538 5531 5523 5511 5503 5495 5487 5479 5473 5468 5466 5464 5463 5461 5463 5467 5470 5475 5482 5489 5496 5502 5507 5512 5516 5520 5525 5530 5535 5541 5545 5552 5559
5568 5567 5566 5564 5563 5560 5559 5554 5550 5541 5535 5529 5517 5509 5496 5483 5473 5463 5456 5451 5447 5443 5439 5438 5437 5438 5439 5443 5449 5461 5471 5477 5484 5490 5496 5501 5505 5509 5513 5518 5523 5528 5534 5542
5562 5560 5560 5561 5560 5559 5555 5548 5542 5532 5524 5516 5505 5493 5481 5468 5458 5449 5440 5433 5428 5422 5419 5418 5417 5415 5418 5421 5429 5438 5450 5460 5468 5475 5480 5484 5489 5493 5497 5501 5505 5509 5516 5523
5557 5556 5558 5559 5557 5556 5549 5541 5533 5530 5521 5507 5493 5479 5466 5457 5449 5441 5432 5423 5416 5412 5410 5409 5406 5406 5408 5409 5413 5424 5436 5448 5456 5461 5465 5469 5472 5475 5478 5481 5485 5489 5495 5502
5553 5555 5557 5556 5553 5550 5546 5540 5529 5520 5508 5496 5483 5472 5462 5453 5446 5437 5430 5419 5412 5408 5407 5406 5405 5405 5405 5407 5413 5421 5430 5438 5445 5450 5454 5456 5457 5459 5461 5464 5466 5468 5472 5481